Date String (YYYY-MM-DD hh:mm:ss) UTC,Instrument flags,Ambient pressure (hPa),Sample flow (lpm),Bypass flow (lpm),Sample temperature (°C),Ambient temperature (°C),ASC tube jacket temperature (°C),LED temperature (°C),Box temperature (°C),Sample RH (%),Span deviation,Mass concentration (μg/m³),Mass concentration (μg/m³),Mass concentration (μg/m³)
DateTimeUTC,F1_M11,P_M11,Q1_M11,Q2_M11,T1_M11,T2_M11,T3_M11,T4_M11,T5_M11,U1_M11,ZSPAN_M11,X0_M11,X2_M11,X1_M11
2022-08-16 01:00:00,,0830.5,5.02,0.00,31.0,27.9,00.0,39.4,32.0,35.5,0000.0,0004.29,0002.56,0001.88
2022-08-16 01:01:00,,0830.5,5.00,0.00,31.2,28.1,00.0,39.4,32.2,36.2,0000.0,0004.18,0002.53,0001.87
2022-08-16 01:02:00,,0830.5,5.00,0.00,31.5,28.2,00.0,39.4,32.3,36.4,0000.0,0004.19,0002.52,0001.87
2022-08-16 01:03:00,,0830.6,5.00,0.00,31.9,28.3,00.0,39.4,32.5,35.6,0000.0,0004.20,0002.49,0001.84
2022-08-16 01:04:00,,0830.6,5.01,0.00,32.3,28.4,00.0,39.5,32.6,34.8,0000.0,0004.57,0002.58,0001.85
2022-08-16 01:05:00,,0830.6,4.99,0.00,32.6,28.5,00.0,39.6,32.7,34.3,0000.0,0004.66,0002.58,0001.84
2022-08-16 01:06:00,,0830.6,5.01,0.00,32.8,28.6,00.0,39.7,32.6,34.2,0000.0,0005.25,0002.70,0001.87
2022-08-16 01:07:00,,0830.6,4.99,0.00,32.8,28.7,00.0,39.8,32.6,34.1,0000.0,0005.50,0002.78,0001.90
2022-08-16 01:08:00,,0830.6,5.00,0.00,32.8,28.7,00.0,39.9,32.5,34.2,0000.0,0005.70,0002.86,0001.94
2022-08-16 01:09:00,,0830.6,5.00,0.00,32.8,28.8,00.0,40.0,32.6,34.4,0000.0,0005.92,0002.94,0001.96
2022-08-16 01:10:00,,0830.6,5.00,0.00,32.7,28.9,00.0,40.1,32.6,34.5,0000.0,0006.15,0003.05,0001.99
2022-08-16 01:11:00,,0830.6,5.00,0.00,32.7,28.9,00.0,40.2,32.6,34.7,0000.0,0006.21,0003.13,0002.04
2022-08-16 01:12:00,,0830.6,4.99,0.00,32.6,29.0,00.0,40.3,32.6,35.0,0000.0,0006.29,0003.16,0002.10
2022-08-16 01:13:00,,0830.6,5.01,0.00,32.6,29.0,00.0,40.3,32.6,35.1,0000.0,0006.37,0003.22,0002.17
2022-08-16 01:14:00,,0830.7,4.98,0.00,32.8,29.0,00.0,40.4,32.8,35.0,0000.0,0006.46,0003.27,0002.25
2022-08-16 01:15:00,,0830.8,5.01,0.00,32.9,29.0,00.0,40.4,32.8,34.8,0000.0,0006.26,0003.28,0002.31
2022-08-16 01:16:00,,0830.7,4.99,0.00,32.9,28.3,00.0,40.3,32.5,34.7,0000.0,0006.50,0003.37,0002.41
2022-08-16 01:17:00,,0830.7,4.99,0.00,32.9,27.9,00.0,40.4,32.4,34.8,0000.0,0006.13,0003.39,0002.50
2022-08-16 01:18:00,,0830.6,5.00,0.00,32.7,27.7,00.0,40.4,32.3,35.2,0000.0,0005.86,0003.39,0002.58
2022-08-16 01:19:00,,0830.6,5.01,0.00,32.8,27.8,00.0,40.4,32.4,35.2,0000.0,0005.79,0003.40,0002.65
2022-08-16 01:20:00,,0830.6,4.98,0.00,32.9,27.9,00.0,40.4,32.6,34.8,0000.0,0006.19,0003.45,0002.72
2022-08-16 01:21:00,,0830.7,4.99,0.00,33.1,28.0,00.0,40.4,32.7,34.6,0000.0,0006.07,0003.44,0002.79
2022-08-16 01:22:00,,0830.6,4.99,0.00,33.1,28.1,00.0,40.4,32.6,34.5,0000.0,0005.96,0003.44,0002.85
2022-08-16 01:23:00,,0830.6,5.01,0.00,33.1,28.3,00.0,40.5,32.6,34.4,0000.0,0006.26,0003.53,0002.95
2022-08-16 01:24:00,,0830.6,4.99,0.00,33.0,28.4,00.0,40.5,32.6,34.6,0000.0,0006.45,0003.58,0003.02
2022-08-16 01:25:00,,0830.6,5.00,0.00,33.0,28.5,00.0,40.6,32.6,34.7,0000.0,0006.80,0003.65,0003.09
2022-08-16 01:26:00,,0830.6,5.00,0.00,32.9,28.6,00.0,40.6,32.6,34.7,0000.0,0007.12,0003.74,0003.15
2022-08-16 01:27:00,,0830.6,5.00,0.00,32.8,28.7,00.0,40.6,32.6,34.7,0000.0,0007.11,0003.77,0003.18
2022-08-16 01:28:00,,0830.6,5.02,0.00,32.7,28.7,00.0,40.6,32.6,34.7,0000.0,0007.34,0003.79,0003.20
2022-08-16 01:29:00,,0830.5,4.99,0.00,32.7,28.8,00.0,40.6,32.6,34.7,0000.0,0007.53,0003.82,0003.21
2022-08-16 01:30:00,,0830.5,5.00,0.00,32.6,28.8,00.0,40.6,32.6,34.9,0000.0,0007.62,0003.88,0003.22
2022-08-16 01:31:00,,0830.4,5.00,0.00,32.6,28.9,00.0,40.6,32.7,34.9,0000.0,0007.52,0003.90,0003.23
2022-08-16 01:32:00,,0830.4,5.00,0.00,32.6,28.9,00.0,40.6,32.8,34.5,0000.0,0007.57,0003.94,0003.23
2022-08-16 01:33:00,,0830.4,5.00,0.00,32.6,29.0,00.0,40.6,32.8,34.3,0000.0,0007.72,0003.98,0003.23
2022-08-16 01:34:00,,0830.4,5.00,0.00,32.6,29.0,00.0,40.6,32.7,34.3,0000.0,0007.80,0003.96,0003.21
2022-08-16 01:35:00,,0830.4,5.00,0.00,32.5,29.0,00.0,40.6,32.7,34.4,0000.0,0008.16,0003.97,0003.19
2022-08-16 01:36:00,,0830.5,4.99,0.00,32.5,29.0,00.0,40.6,32.7,34.5,0000.0,0008.06,0003.92,0003.18
2022-08-16 01:37:00,,0830.5,5.01,0.00,32.4,29.1,00.0,40.6,32.7,34.7,0000.0,0008.00,0003.88,0003.17
2022-08-16 01:38:00,,0830.5,5.00,0.00,32.4,28.6,00.0,40.5,32.5,34.8,0000.0,0007.97,0003.85,0003.15
2022-08-16 01:39:00,,0830.4,5.00,0.00,32.2,28.0,00.0,40.4,32.4,34.8,0000.0,0007.75,0003.81,0003.14
2022-08-16 01:40:00,,0830.4,5.00,0.00,32.1,27.7,00.0,40.4,32.2,34.8,0000.0,0007.65,0003.80,0003.13
2022-08-16 01:41:00,,0830.5,5.00,0.00,31.9,27.7,00.0,40.3,32.2,35.0,0000.0,0007.51,0003.73,0003.09
2022-08-16 01:42:00,,0830.4,5.02,0.00,31.9,27.8,00.0,40.3,32.2,35.2,0000.0,0007.46,0003.70,0003.04
2022-08-16 01:43:00,,0830.4,4.99,0.00,32.0,27.9,00.0,40.3,32.4,35.2,0000.0,0007.39,0003.66,0003.01
2022-08-16 01:44:00,,0830.5,5.00,0.00,32.3,28.1,00.0,40.2,32.5,34.6,0000.0,0007.21,0003.61,0002.98
2022-08-16 01:45:00,,0830.5,5.00,0.00,32.4,28.2,00.0,40.2,32.6,34.2,0000.0,0006.84,0003.57,0002.95
2022-08-16 01:46:00,,0830.5,5.01,0.00,32.5,28.3,00.0,40.2,32.5,33.9,0000.0,0006.02,0003.51,0002.92
2022-08-16 01:47:00,,0830.5,4.99,0.00,32.5,28.4,00.0,40.2,32.5,33.7,0000.0,0005.71,0003.47,0002.87
2022-08-16 01:48:00,,0830.5,4.99,0.00,32.4,28.5,00.0,40.3,32.5,33.5,0000.0,0005.64,0003.45,0002.82
2022-08-16 01:49:00,,0830.5,5.00,0.00,32.4,28.6,00.0,40.3,32.5,33.3,0000.0,0005.44,0003.39,0002.76
2022-08-16 01:50:00,,0830.5,5.00,0.00,32.3,28.7,00.0,40.3,32.5,33.1,0000.0,0005.23,0003.34,0002.70
2022-08-16 01:51:00,,0830.5,5.01,0.00,32.3,28.7,00.0,40.3,32.5,33.5,0000.0,0005.20,0003.30,0002.65
2022-08-16 01:52:00,,0830.5,4.99,0.00,32.2,28.8,00.0,40.3,32.5,33.9,0000.0,0005.25,0003.30,0002.64
2022-08-16 01:53:00,,0830.5,4.99,0.00,32.2,28.9,00.0,40.3,32.5,33.8,0000.0,0005.09,0003.26,0002.63
2022-08-16 01:54:00,,0830.5,5.00,0.00,32.1,28.9,00.0,40.3,32.5,33.9,0000.0,0005.05,0003.24,0002.62
2022-08-16 01:55:00,,0830.5,5.02,0.00,32.0,29.0,00.0,40.3,32.5,33.8,0000.0,0004.97,0003.23,0002.59
2022-08-16 01:56:00,,0830.5,4.99,0.00,32.0,29.0,00.0,40.3,32.5,33.5,0000.0,0005.25,0003.21,0002.55
2022-08-16 01:57:00,,0830.6,4.99,0.00,31.9,29.1,00.0,40.3,32.6,33.2,0000.0,0005.36,0003.20,0002.52
2022-08-16 01:58:00,,0830.5,5.00,0.00,31.9,29.1,00.0,40.3,32.6,33.3,0000.0,0005.30,0003.17,0002.50
2022-08-16 01:59:00,,0830.6,5.01,0.00,31.9,29.1,00.0,40.3,32.6,33.6,0000.0,0005.21,0003.14,0002.48
